Regional Weather Roundup
Issued by NWS

Home | Current Version | Previous Version | Text Only | Print | Product List | Glossary Off
Versions: 1 2 3 4 5 6 7 8 9 10 11 12 13 14 15 16 17 18 19 20 21 22 23 24 25 26 27 28 29 30 31 32 33 34 35 36 37 38 39 40 41 42 43 44 45 46 47 48 49 50

131
ASUS43 KLMK 291510
RWRKY
KENTUCKY REGIONAL WEATHER ROUNDUP
NATIONAL WEATHER SERVICE LOUISVILLE KY
1100 AM EDT THU JUN 29 2017

NOTE "FAIR" INDICATES FEW OR NO CLOUDS BELOW 12,000 FEET
WITH NO SIGNIFICANT WEATHER AND/OR OBSTRUCTIONS TO VISIBILITY.

KYZ001>023-026-027-061>063-070>075-291600-
WESTERN AND SOUTH CENTRAL KENTUCKY

CITY           SKY/WX    TMP DP  RH WIND       PRES   REMARKS
PADUCAH        SUNNY     81  69  67 SW9G17    29.99S
HENDERSON      SUNNY     81  71  71 SW12G20   29.98F
OWENSBORO      SUNNY     81  70  69 SW16      29.99F
HOPKINSVILLE   SUNNY     80  70  70 S12       30.03F
BOWLING GREEN  MOSUNNY   82  70  66 SW13G23   30.05F
GLASGOW        MOSUNNY   79  67  66 SW14G21   30.06F
$$

KYZ024-025-028>034-038-045-046-053-291600-
NORTH CENTRAL KENTUCKY

CITY           SKY/WX    TMP DP  RH WIND       PRES   REMARKS
LOUISVILLE/SDF MOSUNNY   84  68  58 SW18G26   30.00S
LOUISVILLE/LOU MOSUNNY   82  69  64 S15G23    30.00F
FORT KNOX      SUNNY     80  68  65 S14G22    30.01R
$$

KYZ035>037-039>044-047>052-055>060-089>105-291600-
NORTHEAST KENTUCKY

CITY           SKY/WX    TMP DP  RH WIND       PRES   REMARKS
LEXINGTON      PTSUNNY   81  66  60 SW17G26   30.05F
COVINGTON      PTSUNNY   79  69  71 SW15G24   30.00S
FRANKFORT      MOSUNNY   81  67  62 SW20G26   30.02F
$$

KYZ054-064>069-076>088-106>120-291600-
SOUTHEAST KENTUCKY

CITY           SKY/WX    TMP DP  RH WIND       PRES   REMARKS
JACKSON        SUNNY     78  64  61 VRB5      30.12F
LONDON         PTSUNNY   78  63  59 SW12G17   30.13F
SOMERSET       CLOUDY    75  64  69 S8        30.12F
MIDDLESBORO    SUNNY     77  64  63 S9G20     30.16F
MONTICELLO     CLOUDY    78  68  71 S8G26     30.12F
$$





USA.gov is the U.S. government's official web portal to all federal, state and local government web resources and services.